Regional Weather Roundup
Issued by NWS State College, PA

Home | Current Version | Previous Version | Text Only | Print | Product List | Glossary On
Versions: 1 2 3 4 5 6 7 8 9 10 11 12 13 14 15 16 17 18 19 20 21 22 23 24 25 26 27 28 29 30 31 32 33 34 35 36 37 38 39 40 41 42 43 44 45 46 47 48 49 50
000
ASUS41 KCTP 220210
RWRCTP

REGIONAL WEATHER ROUNDUP
NATIONAL WEATHER SERVICE STATE COLLEGE PA
900 PM EST WED FEB 21 2018

Note: "fair" indicates few or no clouds below 12,000 feet with no
significant weather and/or obstructions to visibility.

* = STATION THAT DOES NOT REPORT PRECIPITATION /E.G. RAIN...SNOW...ETC/
    THUNDER OR FOG.

PAZ002>004-007>009-013>016-020>023-029>032-220300-
WESTERN PENNSYLVANIA

CITY           SKY/WX    TMP DP  RH WIND       PRES   REMARKS
ERIE           MOCLDY    35  30  82 NE5       30.58S
MEADVILLE      MIX PCPN  32  32 100 N6        30.54R
FRANKLIN*      LGT RAIN  35  32  88 N6        30.53R
NEW CASTLE     LGT RAIN  36  35  96 N7        30.53F
BEAVER COUNTY  RAIN      36  34  93 N3        30.52R
BUTLER*        CLOUDY    41  36  82 N6        30.52R
PITTSBURGH INT CLOUDY    43  37  79 N9        30.51R
PITTSBURGH     CLOUDY    43  38  82 N8        30.48R
INDIANA*       CLOUDY    46  43  87 VRB5      30.51R
LATROBE        CLOUDY    46  46 100 N8        30.48R
WASHINGTON CO* LGT RAIN  42  39  89 N9        30.53R
$$

PAZ004>006-010>012-017>019-024>028-033>037-041-042-045-046-049>053-220300-
CENTRAL PENNSYLVANIA

CITY           SKY/WX    TMP DP  RH WIND       PRES   REMARKS
BRADFORD       CLOUDY    36  35  96 N5        30.49R
DUBOIS         CLOUDY    41  37  86 N8        30.47S
CLEARFIELD     CLOUDY    47  40  76 NE9       30.47R
JOHNSTOWN      CLOUDY    47  45  93 N10       30.43R
ALTOONA        CLOUDY    53  50  89 N9        30.42R
STATE COLLEGE  CLOUDY    52  45  76 NW15      30.44R
WILLIAMSPORT   CLOUDY    48  35  60 W7        30.48R
SELINSGROVE    CLOUDY    51  43  74 NE12      30.46R
FT INDIANTOWN  MOCLDY    61  50  68 NE8       30.37R
CAPITAL CITY   LGT RAIN  66  54  65 N9        30.37R
HARRISBURG     LGT RAIN  66  52  60 N12       30.35R
YORK           CLOUDY    65  56  72 NW5       30.35R
$$

PAZ038>040-043-044-047-048-054-055-060>062-067>071-220300-
EASTERN PENNSYLVANIA

CITY           SKY/WX    TMP DP  RH WIND       PRES   REMARKS
SCRANTON       CLOUDY    45  40  82 N8        30.47R
MOUNT POCONO   NOT AVBL
ALLENTOWN      CLOUDY    57  48  72 N9        30.39R
QUAKERTOWN*    CLOUDY    59  55  88 N7        30.37R
READING        CLOUDY    59  54  83 NE13G22   30.36R
LANCASTER      CLOUDY    64  55  72 N7        30.35R
COATESVILLE    MOCLDY    66 N/A N/A N8        30.36R
POTTSTOWN      MOCLDY    59  56  89 N10G17    30.37R
BLUE BELL      MOCLDY    63  63 100 N10       30.36R
DOYLESTOWN     CLOUDY    60  58  92 N10       30.35R
WILLOW GROVE   NOT AVBL
NORTH PHILA    CLOUDY    72  61  68 NW8       30.34R
PHILADELPHIA   MOCLDY    68  60  75 NW14      30.33R
$$




USA.gov is the U.S. government's official web portal to all federal, state and local government web resources and services.